Saranac Lake, NY

11:47 PM EST on January 23, 2018 (GMT -0500)
Adirondack Regional

Weather History for KSLK - February, 2014

Change the Weather History Date:

Thursday, February 20, 2014

  Actual Average Record
Temperature  
Mean Temperature 28 °F 16 °F  
Max Temperature 38 °F 29 °F 54 °F (1981)
Min Temperature 18 °F 2 °F -21 °F (1950)
Degree Days  
Heating Degree Days 37 49  
Month to date heating degree days 1074 1019  
Since 1 July heating degree days 6580 6321  
Cooling Degree Days 0 0  
Month to date cooling degree days 0  
Year to date cooling degree days 0  
Moisture  
Dew Point 26 °F    
Average Humidity 76    
Maximum Humidity 92    
Minimum Humidity 59    
Precipitation  
Precipitation T in 0.06 in 0.71 in (1972)
Month to date precipitation 0.56 1.19  
Year to date precipitation 2.11 3.32  
Sea Level Pressure  
Sea Level Pressure 30.05 in    
Wind  
Wind Speed 6 mph (SW)    
Max Wind Speed 16 mph    
Max Gust Speed 21 mph    
Visibility 6 miles    
Events Snow    
T = Trace of Precipitation, MM = Missing Value Source: NWS Daily Summary

Daily Weather History Graph

Daily Weather History Graph

Search for Another Location

Airport or City:

Trip Planner

Search our weather history database for the weather conditions in past years. The results will help you decide how hot, cold, wet, or windy it might be!

Date:

Astronomy

Feb. 20, 2014 Rise Set
Actual Time 6:48 AM EST 5:32 PM EST
Civil Twilight 6:19 AM EST 6:02 PM EST
Nautical Twilight 5:45 AM EST 6:36 PM EST
Astronomical Twilight 5:12 AM EST 7:09 PM EST
Moon 11:39 PM EST (2/20) 9:16 AM EST (2/20)
Length of Visible Light 11h 42m
Length of Day
10h 43m
Waning Gibbous, 71% of the Moon is Illuminated
Feb 20
Waning Gibbous
Feb 22
Last Quarter
Mar 1
New
Mar 8
First Quarter
Mar 16
Full

Hourly Weather History & Observations

Time (EST) Temp. Windchill Dew Point Humidity Pressure Visibility Wind Dir Wind Speed Gust Speed Precip Events Conditions
12:51 AM 30.9 °F 22.8 °F 28.0 °F 89% 29.94 in 7.0 mi SW 9.2 mph - N/A   Overcast
1:40 AM 28.9 °F 19.8 °F 24.1 °F 82% 29.90 in 8.0 mi WSW 10.4 mph 21.9 mph N/A   Scattered Clouds
1:51 AM 28.0 °F 18.6 °F 24.1 °F 85% 29.96 in 9.0 mi WSW 10.4 mph 19.6 mph N/A   Clear
2:51 AM 26.1 °F 16.2 °F 21.0 °F 81% 30.00 in 10.0 mi SW 10.4 mph - N/A   Clear
3:51 AM 21.9 °F 13.4 °F 19.0 °F 89% 30.02 in 10.0 mi SSW 6.9 mph - N/A   Clear
4:51 AM 21.9 °F 12.5 °F 19.0 °F 89% 30.03 in 9.0 mi SW 8.1 mph - N/A   Clear
5:51 AM 21.0 °F 14.6 °F 19.0 °F 92% 30.07 in 8.0 mi SW 4.6 mph - N/A   Clear
6:37 AM 19.0 °F 9.0 °F 19.0 °F 100% 30.03 in 7.0 mi SW 8.1 mph - N/A   Scattered Clouds
6:46 AM 19.4 °F 10.4 °F 17.6 °F 93% 30.03 in 6.0 mi SW 6.9 mph - N/A   Mostly Cloudy
6:51 AM 21.0 °F 14.6 °F 19.9 °F 96% 30.10 in 7.0 mi SW 4.6 mph - N/A   Mostly Cloudy
7:51 AM 25.0 °F 16.3 °F 23.0 °F 92% 30.12 in 4.0 mi SW 8.1 mph - N/A   Overcast
8:51 AM 27.0 °F 16.1 °F 24.1 °F 89% 30.13 in 4.0 mi SW 12.7 mph - N/A   Overcast
9:51 AM 28.9 °F 20.4 °F 24.1 °F 82% 30.13 in 5.0 mi SW 9.2 mph - N/A   Haze
10:21 AM 30.0 °F 19.5 °F 25.0 °F 82% 30.07 in 5.0 mi SSW 13.8 mph - N/A   Haze
10:51 AM 30.9 °F 21.2 °F 25.0 °F 79% 30.12 in 6.0 mi SW 12.7 mph - N/A   Haze
11:51 AM 34.0 °F 25.5 °F 25.0 °F 70% 30.11 in 7.0 mi WSW 11.5 mph 17.3 mph N/A   Clear
12:51 PM 36.0 °F 29.6 °F 25.0 °F 64% 30.09 in 8.0 mi WSW 8.1 mph - N/A   Clear
1:51 PM 37.0 °F 29.8 °F 25.0 °F 62% 30.09 in 10.0 mi SW 10.4 mph - N/A   Scattered Clouds
2:51 PM 37.0 °F 31.6 °F 25.0 °F 62% 30.09 in 10.0 mi SW 6.9 mph - N/A   Overcast
3:51 PM 36.0 °F - 26.1 °F 67% 30.10 in 10.0 mi Calm Calm - N/A   Overcast
4:51 PM 37.0 °F - 25.0 °F 62% 30.09 in 9.0 mi Calm Calm - N/A   Overcast
5:51 PM 35.1 °F - 26.1 °F 70% 30.07 in 10.0 mi Calm Calm - N/A   Overcast
6:51 PM 33.1 °F 30.0 °F 28.0 °F 82% 30.10 in 10.0 mi SW 3.5 mph - N/A   Overcast
7:07 PM 34.0 °F - 28.0 °F 79% 30.03 in 3.0 mi Calm Calm - 0.00 in Snow Light Snow
7:12 PM 33.1 °F - 28.9 °F 85% 30.03 in 1.8 mi Calm Calm - 0.00 in Snow Light Snow
7:29 PM 32.0 °F 27.5 °F 30.9 °F 96% 30.03 in 2.5 mi NNE 4.6 mph - 0.00 in Snow Light Snow
7:39 PM 32.0 °F 27.5 °F 30.9 °F 96% 30.03 in 2.5 mi NE 4.6 mph - 0.00 in Snow Light Snow
7:46 PM 32.0 °F - 30.2 °F 93% 30.04 in 5.0 mi Calm Calm - 0.00 in Snow Light Snow
7:51 PM 32.0 °F - 30.9 °F 96% 30.10 in 7.0 mi Calm Calm - 0.00 in   Overcast
8:22 PM 32.0 °F - 30.9 °F 96% 30.03 in 2.0 mi Calm Calm - 0.00 in Snow Light Snow
8:29 PM 32.0 °F 28.7 °F 30.9 °F 96% 30.02 in 1.8 mi ENE 3.5 mph - 0.00 in Snow Light Snow
8:39 PM 32.0 °F 28.7 °F 30.9 °F 96% 30.02 in 2.0 mi ESE 3.5 mph - 0.00 in Snow Light Snow
8:46 PM 32.0 °F - 30.2 °F 93% 30.01 in 1.8 mi Calm Calm - 0.00 in Snow Light Snow
8:51 PM 32.0 °F - 32.0 °F 100% 30.07 in 2.0 mi Calm Calm - 0.00 in Snow Light Snow
8:55 PM 32.0 °F - 32.0 °F 100% 30.00 in 2.5 mi Calm Calm - 0.00 in Snow Light Snow
9:02 PM 32.0 °F - 30.9 °F 96% 30.00 in 4.0 mi Calm Calm - 0.00 in Snow Light Snow
9:51 PM 30.0 °F 26.5 °F 28.9 °F 96% 30.04 in 9.0 mi ENE 3.5 mph - 0.00 in   Overcast
10:51 PM 32.0 °F 28.7 °F 28.9 °F 88% 30.01 in 10.0 mi ESE 3.5 mph - 0.00 in   Overcast
11:51 PM 30.9 °F 27.5 °F 28.9 °F 92% 29.99 in 10.0 mi ENE 3.5 mph - N/A   Overcast